Track COSMOS 650 now! 10-day predictions COSMOS 650 is classified as:
1 07281U 74028A 24325.79590978 .00000011 00000-0 13970-3 0 9994 2 07281 74.0419 261.8020 0021855 241.6675 133.5163 12.69556591343401